sat.trackr.live / text

‹ back to catalog

STARLINK-35728

NORAD 66544 · 2025-265AE

PAYLOAD ACTIVE UNKNOWN

§ Identity

Operator
Country
US
Launch date
2025-11-19
Launch site
AFETR
Launch vehicle
Mass (kg)
RCS (m²)

Purposes: comms

External: N2YO · Heavens-Above · Gunter

§ Orbital elements

Epoch: 2026-05-25T04:14:55.722048Z

Period
94.27 min
Inclination
42.9983°
Eccentricity
0.0000806
Mean motion
15.27591360 rev/d
Perigee alt
482.5 km
Apogee alt
483.6 km
Semi-major
6,861.2 km
B*
8.4750e-4
RAAN
205.7559°
Arg perigee
282.1390°
Mean anomaly
77.9371°
Rev number
2,881

§ Raw data

STARLINK-357281 66544U 25265AE  26145.17703382  .00023141  00000+0  84750-3 0  99912 66544  42.9983 205.7559 0000806 282.1390  77.9371 15.27591360 28816

JSON: /api/v1/satellites/66544 · /tle

For live sub-satellite position, see the globe view (requires WebGL).

§ Visibility from observer

Set your observer location to see the next 7 days of passes ≥ 10°. The values pass through the URL so the page stays shareable.

No JS? Fill the form by hand. The geolocation button needs JavaScript.